DW9170 Weather Reports


Display with metric or nautical units.
time (UTC)temp
F
wind
direction
speed
MPH
gust
MPH
rain 1hr
in
rain 24hr
in
rain mn
in
humidity
%
barometer
mb
20181016020124 60 227 5.0 12.0 0.00 0.00 0.00 85 1004.2
20181016014615 60 229 3.0 8.0 0.00 0.00 0.00 86 1004.1
20181016013127 59 200 3.0 7.0 0.00 0.00 0.00 86 1004.4
20181016011620 59 137 3.0 8.0 0.00 0.00 0.00 87 1004.3
20181016010117 59 153 4.0 9.0 0.00 0.00 0.00 86 1004.7
20181016004626 59 238 2.0 7.0 0.00 0.00 0.00 84 1004.7
20181016003118 59 229 4.0 7.0 0.00 0.00 0.00 82 1004.9
20181016001613 59 202 4.0 9.0 0.00 0.00 0.00 82 1005.0
20181016000107 59 184 6.0 11.0 0.00 0.00 0.00 84 1005.4
20181015234619 58 178 4.0 10.0 0.00 0.00 0.00 84 1005.2
20181015233108 58 235 4.0 7.0 0.00 0.00 0.00 84 1005.7
20181015231604 58 211 4.0 6.0 0.00 0.00 0.00 82 1005.9
20181015230120 58 184 1.0 9.0 0.00 0.00 0.00 86 1006.2
20181015224612 58 198 3.0 6.0 0.00 0.00 0.00 87 1006.6
20181015223116 58 215 2.0 7.0 0.00 0.00 0.00 88 1006.9
20181015221611 57 106 3.0 7.0 0.00 0.00 0.00 88 1007.1
20181015220119 57 230 3.0 7.0 0.00 0.00 0.00 88 1007.7
20181015214611 57 189 1.0 7.0 0.00 0.00 0.00 88 1008.1
20181015213107 57 178 2.0 7.0 0.00 0.00 0.00 89 1008.1
20181015211618 56 268 3.0 8.0 0.00 0.00 0.00 90 1008.4
20181015210124 56 268 1.0 7.0 0.00 0.00 0.00 89 1008.7
20181015204621 56 232 1.0 5.0 0.00 0.00 0.00 89 1009.1
20181015203112 56 237 1.0 8.0 0.00 0.00 0.00 89 1009.3
20181015201623 55 261 0.0 6.0 0.00 0.00 0.00 89 1009.4
20181015200111 55 202 1.0 6.0 0.00 0.00 0.00 89 1010.1
20181015194607 54 214 1.0 5.0 0.00 0.00 0.00 89 1010.3
20181015193119 54 276 1.0 4.0 0.00 0.00 0.00 89 1010.4
20181015191610 53 65 0.0 1.0 0.00 0.00 0.00 89 1010.8
20181015190118 53 128 1.0 3.0 0.00 0.00 0.00 87 1010.9
20181015184614 52 194 1.0 3.0 0.00 0.00 0.00 70 1011.3
20181015183106 52 198 0.0 3.0 0.00 0.00 0.00 64 1011.5
20181015181615 52 199 0.0 3.0 0.00 0.00 0.00 69 1011.7
20181015180106 51 199 1.0 4.0 0.00 0.00 0.00 69 1011.8
20181015174617 51 199 0.0 2.0 0.00 0.00 0.00 64 1012.5
20181015173127 50 196 0.0 3.0 0.00 0.00 0.00 63 1013.0
20181015171617 50 9 1.0 5.0 0.00 0.00 0.00 63 1013.5
20181015170111 49 254 1.0 3.0 0.00 0.00 0.00 62 1013.7
20181015164614 49 339 1.0 3.0 0.00 0.00 0.00 87 1014.3
20181015163105 48 237 0.0 3.0 0.00 0.00 0.00 88 1014.7
20181015161618 47 237 1.0 2.0 0.00 0.00 0.00 86 1015.1
20181015160111 47 245 0.0 4.0 0.00 0.00 0.00 86 1015.2
20181015154621 46 285 0.0 3.0 0.00 0.00 0.00 86 1015.8
20181015153113 46 277 1.0 4.0 0.00 0.00 0.00 86 1016.1
20181015151612 45 145 0.0 2.0 0.00 0.00 0.00 85 1016.7
20181015150121 44 226 0.0 3.0 0.00 0.00 0.00 85 1016.9
20181015144615 44 258 0.0 3.0 0.00 0.00 0.00 85 1017.3
20181015143106 43 258 0.0 3.0 0.00 0.00 0.00 84 1017.4
20181015141607 43 258 0.0 0.0 0.00 0.00 0.00 84 1017.7
20181015140056 43 258 0.0 4.0 0.00 0.01 0.00 84 1017.6
20181015134624 43 302 0.0 1.0 0.00 0.01 0.00 84 1017.9
20181015133120 42 302 0.0 0.0 0.00 0.01 0.00 84 1018.3
20181015131612 42 302 0.0 0.0 0.00 0.01 0.00 84 1018.6
20181015130105 42 302 0.0 1.0 0.00 0.01 0.00 84 1018.8
20181015124616 42 302 0.0 2.0 0.00 0.01 0.00 84 1018.7
20181015123111 41 302 0.0 0.0 0.00 0.01 0.00 84 1018.8
20181015121621 41 302 0.0 0.0 0.00 0.01 0.00 84 1019.2
20181015120115 40 302 0.0 0.0 0.00 0.01 0.00 84 1019.3
20181015114612 39 302 0.0 1.0 0.00 0.01 0.00 84 1019.3
20181015113124 39 302 0.0 1.0 0.00 0.01 0.00 83 1019.4
20181015111617 39 302 0.0 0.0 0.00 0.01 0.00 83 1019.4
20181015110109 39 302 0.0 0.0 0.00 0.01 0.00 83 1019.4
20181015104623 39 302 0.0 0.0 0.00 0.01 0.00 83 1019.9
20181015103115 39 302 0.0 0.0 0.00 0.01 0.00 64 1019.7
20181015101608 39 302 0.0 0.0 0.00 0.01 0.00 83 1019.6
20181015100105 39 302 0.0 0.0 0.00 0.01 0.00 83 1019.7
20181015094615 39 302 0.0 0.0 0.00 0.01 0.00 84 1019.5
20181015093104 39 302 0.0 0.0 0.00 0.01 0.00 84 1019.4
20181015091617 40 302 0.0 0.0 0.00 0.01 0.00 84 1019.5
20181015090107 40 302 0.0 0.0 0.00 0.01 0.00 83 1019.7
20181015084619 39 302 0.0 0.0 0.00 0.01 0.00 83 1020.0
20181015083113 40 302 0.0 0.0 0.00 0.01 0.00 84 1020.1
20181015081611 40 302 0.0 0.0 0.00 0.01 0.00 83 1019.9
20181015080122 40 302 0.0 0.0 0.00 0.01 0.00 83 1020.1
20181015074617 40 302 0.0 0.0 0.00 0.01 0.00 83 1020.0
20181015073109 40 303 0.0 0.0 0.00 0.01 0.00 83 1020.3
20181015071609 40 302 0.0 1.0 0.00 0.01 0.00 83 1020.3
20181015070103 40 302 0.0 0.0 0.00 0.01 0.00 82 1020.5
20181015064616 40 302 0.0 0.0 0.00 0.01 0.00 82 1020.5
20181015063116 41 302 0.0 1.0 0.00 0.01 0.00 82 1020.6
20181015061607 41 302 0.0 0.0 0.00 0.01 0.00 83 1020.5
20181015060119 41 302 0.0 0.0 0.00 0.01 0.00 83 1020.8
20181015054607 41 302 0.0 0.0 0.00 0.01 0.00 83 1021.1
20181015053106 41 302 0.0 0.0 0.01 0.01 0.00 83 1020.8
20181015051618 40 302 0.0 0.0 0.01 0.01 0.00 83 1020.7
20181015050112 40 302 0.0 0.0 0.01 0.01 0.00 82 1020.6
20181015044607 40 302 0.0 0.0 0.01 0.01 0.00 81 1020.8
20181015043102 41 302 0.0 0.0 0.00 0.00 0.00 81 1020.9
20181015041614 41 302 0.0 0.0 0.00 0.00 0.00 81 1021.0
20181015040110 41 302 0.0 2.0 0.00 0.00 0.00 81 1021.2
20181015034607 41 302 0.0 1.0 0.00 0.00 0.00 80 1020.9
20181015033119 41 302 0.0 2.0 0.00 0.00 0.00 80 1020.9
20181015031616 41 302 0.0 0.0 0.00 0.00 0.00 80 1021.1
20181015030108 41 302 0.0 0.0 0.00 0.00 0.00 79 1021.1
20181015024605 42 302 0.0 0.0 0.00 0.00 0.00 78 1021.0
20181015023117 42 302 0.0 0.0 0.00 0.00 0.00 77 1020.7
20181015021607 42 302 0.0 0.0 0.00 0.00 0.00 77 1020.9